Daggett-Barstow, CA

7:47 AM PDT on April 28, 2017 (GMT -0700)
Barstow-Daggett

Weather History for KDAG - August, 2014

Change the Weather History Date:

Saturday, August 30, 2014

  Actual Average Record
Temperature  
Mean Temperature 90 °F 85 °F  
Max Temperature 107 °F 100 °F 112 °F (1998)
Min Temperature 73 °F 70 °F 56 °F (1951)
Degree Days  
Heating Degree Days 0    
Cooling Degree Days 25    
Growing Degree Days 40 (Base 50)    
Moisture  
Dew Point 29 °F    
Average Humidity 12    
Maximum Humidity 21    
Minimum Humidity 5    
Precipitation  
Precipitation 0.00 in 0.00 in 0.20 in (1967)
Month to date precipitation 0.25  
Year to date precipitation 2.75  
Sea Level Pressure  
Sea Level Pressure 29.71 in    
Wind  
Wind Speed 14 mph (West)    
Max Wind Speed 26 mph    
Max Gust Speed 33 mph    
Visibility 10 miles    
Events      
T = Trace of Precipitation, MM = Missing Value Source: NWS Daily Summary

Daily Weather History Graph

Daily Weather History Graph

Search for Another Location

Airport or City:

Trip Planner

Search our weather history database for the weather conditions in past years. The results will help you decide how hot, cold, wet, or windy it might be!

Date:

Astronomy

Aug. 30, 2014 Rise Set
Actual Time 6:18 AM PDT 7:16 PM PDT
Civil Twilight 5:52 AM PDT 7:42 PM PDT
Nautical Twilight 5:22 AM PDT 8:12 PM PDT
Astronomical Twilight 4:50 AM PDT 8:44 PM PDT
Moon 10:57 AM PDT (8/30) 10:06 PM PDT (8/30)
Length of Visible Light 13h 49m
Length of Day
12h 57m
Waxing Crescent, 24% of the Moon is Illuminated
Aug 30
Waxing Crescent
Sep 2
First Quarter
Sep 8
Full
Sep 15
Last Quarter
Sep 23
New

Hourly Weather History & Observations

Time (PDT) Temp. Dew Point Humidity Pressure Visibility Wind Dir Wind Speed Gust Speed Precip Events Conditions
12:50 AM 82.0 °F 33.1 °F 17% 29.76 in 10.0 mi West 13.8 mph - N/A   Clear
1:50 AM 78.1 °F 34.0 °F 20% 29.75 in 10.0 mi West 6.9 mph - N/A   Clear
2:50 AM 79.0 °F 32.0 °F 18% 29.75 in 10.0 mi West 10.4 mph - N/A   Clear
3:50 AM 77.0 °F 32.0 °F 19% 29.75 in 10.0 mi WNW 12.7 mph - N/A   Clear
4:50 AM 75.0 °F 30.9 °F 20% 29.75 in 10.0 mi SW 11.5 mph - N/A   Clear
5:50 AM 73.9 °F 30.9 °F 21% 29.76 in 10.0 mi West 11.5 mph - N/A   Clear
6:50 AM 73.9 °F 32.0 °F 21% 29.77 in 10.0 mi West 12.7 mph - N/A   Clear
8:50 AM 87.1 °F 35.1 °F 16% 29.77 in 10.0 mi WNW 12.7 mph - N/A   Clear
9:50 AM 91.9 °F 30.9 °F 11% 29.77 in 10.0 mi WNW 13.8 mph - N/A   Clear
10:50 AM 96.1 °F 27.0 °F 9% 29.76 in 10.0 mi WNW 11.5 mph - N/A   Clear
11:50 AM 100.0 °F 19.0 °F 5% 29.74 in 10.0 mi West 13.8 mph - N/A   Clear
12:50 PM 100.9 °F 23.0 °F 6% 29.73 in 10.0 mi West 12.7 mph 24.2 mph N/A   Clear
1:50 PM 105.1 °F 23.0 °F 6% 29.70 in 10.0 mi West 18.4 mph 24.2 mph N/A   Clear
2:50 PM 106.0 °F 28.0 °F 7% 29.67 in 10.0 mi West 13.8 mph 26.5 mph N/A   Clear
3:50 PM 107.1 °F 28.9 °F 7% 29.65 in 10.0 mi West 19.6 mph 27.6 mph N/A   Clear
4:50 PM 107.1 °F 28.9 °F 7% 29.62 in 10.0 mi WSW 20.7 mph 28.8 mph N/A   Clear
5:50 PM 105.1 °F 30.9 °F 8% 29.62 in 10.0 mi West 26.5 mph 31.1 mph N/A   Clear
6:50 PM 100.0 °F 32.0 °F 9% 29.63 in 10.0 mi West 21.9 mph 32.2 mph N/A   Clear
8:50 PM 93.0 °F 33.1 °F 12% 29.68 in 10.0 mi WSW 23.0 mph 33.4 mph N/A   Clear
9:50 PM 91.0 °F 30.0 °F 11% 29.69 in 10.0 mi WSW 20.7 mph - N/A   Clear
10:50 PM 90.0 °F 26.1 °F 10% 29.69 in 10.0 mi SW 24.2 mph 33.4 mph N/A   Clear
11:50 PM 88.0 °F 19.9 °F 8% 29.68 in 10.0 mi SW 21.9 mph 29.9 mph N/A   Clear